Tracking 26931 objects as of 6-Feb-2023
HD Live streaming from Space Station
objects crossing your sky now

BLOCK DM-SL R/B

Track BLOCK DM-SL R/B now!


NORAD ID: 38357
Int'l Code: 2012-030B
Perigee: 749.3 km
Apogee: 35,661.6 km
Inclination: 0.1 °
Period: 639.1 minutes
Semi major axis: 24576 km
RCS: 20.6934 m2 (large)
Launch date: June 1, 2012
Source: Sea Launch (SEAL)
Launch site: SEA LAUNCH (SEAL)

Note: This is a ROCKET BODY
Your satellite tracking list
Your tracking list is empty




NASA's NSSDC Master Catalog

Two Line Element Set (TLE):
1 38357U 12030B   23036.70874535 -.00000151  00000-0 -12288-3 0  9998
2 38357   0.0876  62.7714 7102808 246.8293   6.6929  2.25333244 87966
Source of the keplerian elements: AFSPC